Location: Unspecified
(48.8566°N, 0.0000°E)
Time: 03:07:20
(UTC+00:00)

CZ-6A DEB - Visible Passes

Search period start: 04 April 2026 00:00
Search period end: 14 April 2026 00:00
Orbit: 772 x 846 km, 89.0° (Epoch: 28 March)

Date Brightness Start Highest point End Pass type
(mag) Time Alt. Az. Time Alt. Az. Time Alt. Az.
4 Apr ? 19:11:42 10° NNW 19:15:26 20° WNW 19:19:12 10° WSW visible
5 Apr ? 04:55:45 10° SE 05:00:07 28° ENE 05:04:29 10° NNE visible
6 Apr ? 04:32:25 10° ESE 04:36:04 20° ENE 04:39:43 10° NNE visible
7 Apr ? 04:09:35 10° E 04:12:04 14° ENE 04:14:34 10° NE visible
8 Apr ? 19:16:32 10° NW 19:19:06 14° WNW 19:21:42 10° W visible
10 Apr ? 04:35:21 10° SE 04:39:44 29° ENE 04:44:08 10° NNE visible
11 Apr ? 04:11:56 10° ESE 04:15:38 20° ENE 04:19:21 10° NNE visible
12 Apr ? 03:49:00 10° E 03:51:36 14° ENE 03:54:12 10° NE visible
